Time,TemperatureF,DewpointF,PressureIn,WindDirection,WindDirectionDegrees,WindSpeedMPH,WindSpeedGustMPH,Humidity,HourlyPrecipIn,Conditions,Clouds,dailyrainin,SoftwareType,DateUTC
2013-10-07 00:03:00,48.0,44.0,-100.00,West,280,11.0,16.0,85,0.00,,,-99.99,,2013-10-07 05:03:00,
2013-10-07 00:13:00,48.0,44.0,-100.00,West,280,11.0,16.0,85,0.00,,,-99.99,,2013-10-07 05:13:00,
2013-10-07 00:52:00,47.0,43.0,-100.00,West,265,9.0,14.0,85,0.00,,,-99.99,,2013-10-07 05:52:00,
2013-10-07 01:03:00,47.0,43.0,-100.00,West,265,9.0,14.0,85,0.00,,,-99.99,,2013-10-07 06:03:00,
2013-10-07 01:12:00,47.0,43.0,-100.00,West,265,9.0,14.0,85,0.00,,,-99.99,,2013-10-07 06:12:00,
2013-10-07 01:53:00,48.0,44.0,-100.00,West,270,7.0,17.0,85,0.00,,,-99.99,,2013-10-07 06:53:00,
2013-10-07 02:01:00,48.0,44.0,-100.00,West,270,7.0,17.0,85,0.00,,,-99.99,,2013-10-07 07:01:00,
2013-10-07 02:12:00,48.0,44.0,-100.00,West,270,7.0,17.0,85,0.00,,,-99.99,,2013-10-07 07:12:00,
2013-10-07 02:52:00,48.0,45.0,-100.00,West,275,8.0,14.0,89,0.00,,,-99.99,,2013-10-07 07:52:00,
2013-10-07 03:03:00,48.0,45.0,-100.00,West,275,8.0,14.0,89,0.00,,,-99.99,,2013-10-07 08:03:00,
2013-10-07 03:12:00,48.0,45.0,-100.00,West,275,8.0,14.0,89,0.00,,,-99.99,,2013-10-07 08:12:00,
2013-10-07 03:52:00,48.0,46.0,-100.00,West,270,7.0,14.0,91,0.00,,,-99.99,,2013-10-07 08:52:00,
2013-10-07 04:02:00,48.0,46.0,-100.00,West,270,7.0,14.0,91,0.00,,,-99.99,,2013-10-07 09:02:00,
2013-10-07 04:11:00,48.0,46.0,-100.00,West,270,7.0,14.0,91,0.00,,,-99.99,,2013-10-07 09:11:00,
2013-10-07 04:54:00,48.0,46.0,-100.00,NW,320,14.0,24.0,91,0.00,,,-99.99,,2013-10-07 09:54:00,
2013-10-07 05:03:00,48.0,46.0,-100.00,NW,320,14.0,24.0,91,0.00,,,-99.99,,2013-10-07 10:03:00,
2013-10-07 05:13:00,48.0,46.0,-100.00,NW,320,14.0,24.0,91,0.00,,,-99.99,,2013-10-07 10:13:00,
2013-10-07 05:53:00,47.0,44.0,-100.00,WNW,285,7.0,14.0,89,0.00,,,-99.99,,2013-10-07 10:53:00,
2013-10-07 06:02:00,47.0,44.0,-100.00,WNW,285,7.0,14.0,89,0.00,,,-99.99,,2013-10-07 11:02:00,
2013-10-07 06:12:00,47.0,44.0,-100.00,WNW,285,7.0,14.0,89,0.00,,,-99.99,,2013-10-07 11:12:00,
2013-10-07 06:52:00,45.0,42.0,-100.00,WNW,290,8.0,15.0,90,0.00,,,-99.99,,2013-10-07 11:52:00,
2013-10-07 07:02:00,45.0,42.0,-100.00,WNW,290,8.0,15.0,90,0.00,,,-99.99,,2013-10-07 12:02:00,
2013-10-07 07:12:00,45.0,42.0,-100.00,WNW,290,8.0,15.0,90,0.00,,,-99.99,,2013-10-07 12:12:00,
2013-10-07 07:52:00,45.0,42.0,-100.00,WNW,300,6.0,10.0,91,0.00,,,-99.99,,2013-10-07 12:52:00,
2013-10-07 08:02:00,45.0,42.0,-100.00,WNW,300,6.0,10.0,91,0.00,,,-99.99,,2013-10-07 13:02:00,
2013-10-07 08:11:00,45.0,42.0,-100.00,WNW,300,6.0,10.0,91,0.00,,,-99.99,,2013-10-07 13:11:00,
2013-10-07 08:52:00,46.0,44.0,-100.00,WNW,295,9.0,16.0,91,0.00,,,-99.99,,2013-10-07 13:52:00,
2013-10-07 09:02:00,46.0,44.0,-100.00,WNW,295,9.0,16.0,91,0.00,,,-99.99,,2013-10-07 14:02:00,
2013-10-07 09:11:00,46.0,44.0,-100.00,WNW,295,9.0,16.0,91,0.00,,,-99.99,,2013-10-07 14:11:00,
2013-10-07 09:52:00,48.0,45.0,-100.00,West,265,12.0,18.0,89,0.00,,,-99.99,,2013-10-07 14:52:00,
2013-10-07 10:01:00,48.0,45.0,-100.00,West,265,12.0,18.0,89,0.00,,,-99.99,,2013-10-07 15:01:00,
2013-10-07 10:11:00,48.0,45.0,-100.00,West,265,12.0,18.0,89,0.00,,,-99.99,,2013-10-07 15:11:00,
2013-10-07 10:53:00,52.0,44.0,-100.00,WSW,255,10.0,17.0,74,0.00,,,-99.99,,2013-10-07 15:53:00,
2013-10-07 11:03:00,52.0,44.0,-100.00,WSW,255,10.0,17.0,74,0.00,,,-99.99,,2013-10-07 16:03:00,
2013-10-07 11:13:00,52.0,44.0,-100.00,WSW,255,10.0,17.0,74,0.00,,,-99.99,,2013-10-07 16:13:00,
2013-10-07 11:53:00,58.0,42.0,-100.00,West,280,11.0,17.0,56,0.00,,,-99.99,,2013-10-07 16:53:00,
2013-10-07 12:03:00,58.0,42.0,-100.00,West,280,11.0,17.0,56,0.00,,,-99.99,,2013-10-07 17:03:00,
2013-10-07 12:12:00,58.0,42.0,-100.00,West,280,11.0,17.0,56,0.00,,,-99.99,,2013-10-07 17:12:00,
2013-10-07 13:52:00,63.0,36.0,-100.00,WNW,295,12.0,21.0,37,0.00,,,-99.99,,2013-10-07 18:52:00,
2013-10-07 14:02:00,63.0,36.0,-100.00,WNW,295,12.0,21.0,37,0.00,,,-99.99,,2013-10-07 19:02:00,
2013-10-07 14:11:00,63.0,36.0,-100.00,WNW,295,12.0,21.0,37,0.00,,,-99.99,,2013-10-07 19:11:00,
2013-10-07 14:53:00,65.0,37.0,-100.00,West,270,9.0,15.0,35,0.00,,,-99.99,,2013-10-07 19:53:00,
2013-10-07 15:02:00,65.0,37.0,-100.00,West,270,9.0,15.0,35,0.00,,,-99.99,,2013-10-07 20:02:00,
2013-10-07 15:12:00,65.0,37.0,-100.00,West,270,9.0,15.0,35,0.00,,,-99.99,,2013-10-07 20:12:00,
2013-10-07 15:52:00,65.0,34.0,-100.00,WSW,250,12.0,17.0,32,0.00,,,-99.99,,2013-10-07 20:52:00,
2013-10-07 16:02:00,65.0,34.0,-100.00,WSW,250,12.0,17.0,32,0.00,,,-99.99,,2013-10-07 21:02:00,
2013-10-07 16:12:00,65.0,34.0,-100.00,WSW,250,12.0,17.0,32,0.00,,,-99.99,,2013-10-07 21:12:00,
2013-10-07 16:55:00,66.0,34.0,-100.00,West,270,6.0,16.0,31,0.00,,,-99.99,,2013-10-07 21:55:00,
2013-10-07 17:04:00,66.0,34.0,-100.00,West,270,6.0,16.0,31,0.00,,,-99.99,,2013-10-07 22:04:00,
2013-10-07 17:13:00,66.0,34.0,-100.00,West,270,6.0,16.0,31,0.00,,,-99.99,,2013-10-07 22:13:00,
2013-10-07 17:53:00,64.0,33.0,-100.00,West,270,10.0,14.0,32,0.00,,,-99.99,,2013-10-07 22:53:00,
2013-10-07 18:02:00,64.0,33.0,-100.00,West,270,10.0,14.0,32,0.00,,,-99.99,,2013-10-07 23:02:00,
2013-10-07 18:12:00,64.0,33.0,-100.00,West,270,10.0,14.0,32,0.00,,,-99.99,,2013-10-07 23:12:00,
2013-10-07 18:52:00,60.0,36.0,-100.00,West,270,2.0,4.0,40,0.00,,,-99.99,,2013-10-07 23:52:00,
2013-10-07 19:02:00,60.0,36.0,-100.00,West,270,2.0,4.0,40,0.00,,,-99.99,,2013-10-08 00:02:00,
2013-10-07 19:11:00,60.0,36.0,-100.00,West,270,2.0,4.0,40,0.00,,,-99.99,,2013-10-08 00:11:00,
2013-10-07 19:52:00,54.0,42.0,-100.00,WSW,255,1.0,2.0,62,0.00,,,-99.99,,2013-10-08 00:52:00,
2013-10-07 20:02:00,54.0,42.0,-100.00,WSW,255,1.0,2.0,62,0.00,,,-99.99,,2013-10-08 01:02:00,
2013-10-07 20:12:00,54.0,42.0,-100.00,WSW,255,1.0,2.0,62,0.00,,,-99.99,,2013-10-08 01:12:00,
2013-10-07 20:52:00,51.0,45.0,-100.00,WSW,240,1.0,2.0,78,0.00,,,-99.99,,2013-10-08 01:52:00,
2013-10-07 21:03:00,51.0,45.0,-100.00,WSW,240,1.0,2.0,78,0.00,,,-99.99,,2013-10-08 02:03:00,
2013-10-07 21:11:00,51.0,45.0,-100.00,WSW,240,1.0,2.0,78,0.00,,,-99.99,,2013-10-08 02:11:00,
2013-10-07 21:52:00,50.0,44.0,-100.00,South,185,1.0,4.0,80,0.00,,,-99.99,,2013-10-08 02:52:00,
2013-10-07 22:02:00,50.0,44.0,-100.00,South,185,1.0,4.0,80,0.00,,,-99.99,,2013-10-08 03:02:00,
2013-10-07 22:11:00,50.0,44.0,-100.00,South,185,1.0,4.0,80,0.00,,,-99.99,,2013-10-08 03:11:00,
2013-10-07 22:55:00,46.0,43.0,-100.00,WSW,240,0.0,2.0,89,0.00,,,-99.99,,2013-10-08 03:55:00,
2013-10-07 23:04:00,46.0,43.0,-100.00,WSW,240,0.0,2.0,89,0.00,,,-99.99,,2013-10-08 04:04:00,
2013-10-07 23:14:00,46.0,43.0,-100.00,WSW,240,0.0,2.0,89,0.00,,,-99.99,,2013-10-08 04:14:00,
2013-10-07 23:53:00,45.0,43.0,-100.00,SW,215,0.0,2.0,90,0.00,,,-99.99,,2013-10-08 04:53:00,